Location: Castillon
(43.0896°N, 0.2156°E)
Time: 15:09:22
(UTC+00:00)

Cosmos 2100 Rocket - Pass Details

Date: 16 June 2021
Orbit: 955 x 1001 km, 82.9° (Epoch: 01 August)

Event Time Altitude Azimuth Distance (km) Brightness Sun altitude
Rises 21:41:22 0° 350° (N) 3,735 8.3 -16.3°
Reaches altitude 10° 21:43:55 10° 348° (NNW) 2,779 7.5 -16.5°
Maximum altitude 21:50:16 72° 266° (W) 1,044 4.2 -17.1°
Enters shadow 21:54:45 20° 185° (S) 2,097 5.3 -17.6°
